Antigo, WI

4:32 AM CDT on April 25, 2018 (GMT -0500)
Langlade County

Weather History for KAIG - October, 2013

Change the Weather History Date:

Tuesday, October 15, 2013

  Actual Average Record
Temperature  
Mean Temperature 47 °F -  
Max Temperature 51 °F 56 °F 81 °F (1968)
Min Temperature 43 °F 35 °F 23 °F (2006)
Degree Days  
Heating Degree Days 18    
Moisture  
Dew Point 47 °F    
Average Humidity 96    
Maximum Humidity 100    
Minimum Humidity 87    
Precipitation  
Precipitation 0.48 in - - ()
Sea Level Pressure  
Sea Level Pressure 29.87 in    
Wind  
Wind Speed 12 mph (SSE)    
Max Wind Speed 24 mph    
Max Gust Speed 32 mph    
Visibility 6 miles    
Events Fog , Rain    
Averages and records for this station are not official NWS values.
T = Trace of Precipitation, MM = Missing Value Source: NWS Daily Summary

Daily Weather History Graph

Daily Weather History Graph

Search for Another Location

Airport or City:

Astronomy

Oct. 15, 2013 Rise Set
Actual Time 7:12 AM CDT 6:10 PM CDT
Civil Twilight 6:42 AM CDT 6:40 PM CDT
Nautical Twilight 6:08 AM CDT 7:14 PM CDT
Astronomical Twilight 5:34 AM CDT 7:48 PM CDT
Moon 4:23 PM CDT (10/15) 3:26 AM CDT (10/15)
Length of Visible Light 11h 57m
Length of Day
10h 58m
Waxing Gibbous, 88% of the Moon is Illuminated
Oct 15
Waxing Gibbous
Oct 18
Full
Oct 26
Last Quarter
Nov 3
New
Nov 9
First Quarter

Hourly Weather History & Observations

Time (CDT) Temp. Windchill Dew Point Humidity Pressure Visibility Wind Dir Wind Speed Gust Speed Precip Events Conditions
12:15 AM 43.5 °F 37.1 °F 40.6 °F 90% 30.16 in 10.0 mi East 12.7 mph - N/A   Clear
12:35 AM 43.7 °F 37.7 °F 40.6 °F 89% 30.15 in 10.0 mi East 11.5 mph - N/A   Clear
12:55 AM 44.2 °F 38.0 °F 41.0 °F 88% 30.15 in 10.0 mi East 12.7 mph - N/A   Clear
1:15 AM 44.2 °F 38.0 °F 41.4 °F 90% 30.14 in 10.0 mi ESE 12.7 mph - N/A   Clear
1:35 AM 44.6 °F 38.8 °F 41.9 °F 90% 30.14 in 10.0 mi ESE 11.5 mph - N/A   Clear
1:55 AM 44.6 °F 38.8 °F 42.1 °F 91% 30.12 in 10.0 mi East 11.5 mph - N/A   Clear
2:15 AM 44.8 °F 38.7 °F 42.4 °F 91% 30.11 in 10.0 mi East 12.7 mph - N/A   Clear
2:35 AM 45.1 °F 39.5 °F 42.8 °F 91% 30.10 in 10.0 mi ESE 11.5 mph 18.4 mph N/A   Clear
2:55 AM 45.5 °F 39.9 °F 42.8 °F 90% 30.09 in 10.0 mi ESE 11.5 mph - N/A   Clear
3:15 AM 45.9 °F 40.8 °F 42.3 °F 87% 30.08 in 10.0 mi ESE 10.4 mph - N/A   Clear
3:35 AM 45.9 °F 40.0 °F 42.1 °F 87% 30.08 in 10.0 mi ESE 12.7 mph - N/A   Mostly Cloudy
3:55 AM 45.9 °F 40.4 °F 42.3 °F 87% 30.08 in 10.0 mi ESE 11.5 mph 16.1 mph N/A   Mostly Cloudy
4:15 AM 45.7 °F 39.5 °F 42.8 °F 90% 30.06 in 10.0 mi ESE 13.8 mph - N/A   Mostly Cloudy
4:35 AM 45.7 °F 40.2 °F 42.8 °F 90% 30.06 in 10.0 mi ESE 11.5 mph - N/A   Mostly Cloudy
4:55 AM 46.0 °F 41.0 °F 43.0 °F 89% 30.05 in 10.0 mi ESE 10.4 mph - N/A   Overcast
5:15 AM 46.4 °F 40.7 °F 43.3 °F 89% 30.05 in 10.0 mi SE 12.7 mph - N/A   Overcast
5:35 AM 46.4 °F 40.1 °F 44.2 °F 92% 30.03 in 10.0 mi ESE 15.0 mph 18.4 mph N/A Rain Light Rain
5:55 AM 46.6 °F - 44.8 °F 93% 30.02 in 10.0 mi ESE 13.8 mph - N/A Rain Light Rain
6:15 AM 46.8 °F - 45.3 °F 95% 30.01 in 10.0 mi SE 13.8 mph 21.9 mph N/A Rain Light Rain
6:35 AM 46.9 °F - 45.5 °F 95% 29.98 in 10.0 mi ESE 18.4 mph 24.2 mph N/A Rain Light Rain
6:55 AM 46.9 °F - 45.9 °F 96% 29.96 in 10.0 mi ESE 17.3 mph - N/A Rain Light Rain
7:15 AM 47.3 °F - 46.6 °F 97% 29.95 in 7.0 mi SE 18.4 mph 26.5 mph 0.02 in Rain Heavy Rain
7:35 AM 47.8 °F - 46.9 °F 97% 29.95 in 5.0 mi SE 24.2 mph 32.2 mph 0.04 in Rain Rain
7:55 AM 48.2 °F - 47.3 °F 97% 29.93 in 3.0 mi SE 18.4 mph 27.6 mph 0.08 in Rain Rain
8:15 AM 48.4 °F - 47.7 °F 97% 29.92 in 3.0 mi SE 20.7 mph 27.6 mph 0.03 in Rain Heavy Rain
8:35 AM 48.6 °F - 47.8 °F 97% 29.90 in 4.0 mi ESE 20.7 mph 26.5 mph 0.06 in Rain Heavy Rain
8:55 AM 48.6 °F - 48.2 °F 99% 29.90 in 3.0 mi SE 18.4 mph 25.3 mph 0.08 in Rain Heavy Rain
9:15 AM 48.6 °F - 47.8 °F 97% 29.90 in 3.0 mi SE 16.1 mph 26.5 mph 0.03 in Rain Rain
9:35 AM 48.9 °F - 48.2 °F 97% 29.89 in 3.0 mi SE 12.7 mph 17.3 mph 0.10 in Rain Rain
9:55 AM 49.1 °F - 48.6 °F 98% 29.87 in 4.0 mi SE 17.3 mph 20.7 mph 0.16 in Rain Rain
10:15 AM 49.5 °F - 49.1 °F 99% 29.86 in 3.0 mi SE 19.6 mph 25.3 mph 0.05 in Rain Heavy Rain
10:35 AM 49.8 °F - 49.3 °F 98% 29.85 in 5.0 mi SE 17.3 mph 26.5 mph 0.08 in Rain Rain
10:55 AM 50.0 °F - 49.3 °F 97% 29.85 in 3.0 mi SE 16.1 mph - 0.13 in Rain Rain
11:15 AM 50.4 °F - 49.6 °F 97% 29.84 in 7.0 mi SE 15.0 mph 18.4 mph N/A Rain Light Rain
11:35 AM 50.5 °F - 50.0 °F 98% 29.83 in 7.0 mi SE 13.8 mph - N/A   Overcast
11:55 AM 50.9 °F - 50.2 °F 97% 29.83 in 4.0 mi SE 11.5 mph - 0.01 in   Light Drizzle
12:15 PM 50.7 °F - 50.4 °F 99% 29.83 in 1.5 mi SE 12.7 mph - N/A   Light Drizzle
12:35 PM 50.9 °F - 50.4 °F 98% 29.81 in 1.2 mi SE 12.7 mph - 0.01 in   Light Drizzle
12:55 PM 51.1 °F - 50.9 °F 99% 29.80 in 1.8 mi SE 11.5 mph - 0.01 in   Light Drizzle
1:15 PM 51.6 °F - 51.1 °F 98% 29.79 in 2.5 mi SSE 10.4 mph - N/A   Overcast
1:35 PM 51.8 °F - 51.3 °F 98% 29.78 in 2.0 mi SSE 12.7 mph - N/A   Overcast
1:55 PM 51.8 °F - 51.3 °F 98% 29.76 in 2.0 mi SSE 10.4 mph - N/A   Overcast
2:15 PM 51.8 °F - 51.4 °F 99% 29.76 in 3.0 mi SSE 8.1 mph - N/A   Overcast
2:35 PM 51.8 °F - 51.6 °F 99% 29.75 in 2.0 mi SSE 9.2 mph - N/A   Overcast
2:55 PM 51.8 °F - 51.4 °F 99% 29.74 in 1.0 mi SSE 10.4 mph - N/A   Overcast
3:15 PM 51.8 °F - 51.6 °F 99% 29.73 in 0.8 mi SSE 6.9 mph - N/A   Overcast
3:35 PM 51.8 °F - 51.8 °F 100% 29.73 in 1.0 mi SSE 9.2 mph - N/A   Overcast
3:55 PM 51.8 °F - 51.8 °F 100% 29.73 in 0.5 mi SSE 8.1 mph - N/A Fog Fog
4:15 PM 51.4 °F - 51.4 °F 100% 29.73 in 0.5 mi SSE 9.2 mph - N/A Fog Fog
4:35 PM 51.8 °F - 51.8 °F 100% 29.72 in 0.5 mi SSE 8.1 mph - N/A Fog Fog
4:55 PM 51.8 °F - 51.8 °F 100% 29.72 in 0.5 mi SSE 6.9 mph - N/A Fog Fog
5:15 PM 51.8 °F - 51.8 °F 100% 29.71 in 0.5 mi SSE 6.9 mph - N/A Fog Fog
5:35 PM 51.8 °F - 51.8 °F 100% 29.71 in 0.8 mi SSE 4.6 mph - N/A   Overcast
5:55 PM 51.8 °F - 51.8 °F 100% 29.71 in 1.0 mi SSE 4.6 mph - N/A   Overcast
6:15 PM 51.8 °F - 51.8 °F 100% 29.71 in 0.8 mi SSE 3.5 mph - N/A   Overcast
6:35 PM 51.8 °F - 51.8 °F 100% 29.71 in 0.5 mi SSE 4.6 mph - N/A Fog Fog
6:55 PM 51.8 °F - 51.8 °F 100% 29.71 in 0.2 mi SSE 4.6 mph - N/A Fog Fog
7:15 PM 51.8 °F - 51.8 °F 100% 29.71 in 0.2 mi SSE 4.6 mph - N/A Fog Fog
7:55 PM 48.2 °F - 48.0 °F 99% 29.71 in 7.0 mi West 15.0 mph - N/A   Overcast
8:15 PM 48.4 °F - 47.7 °F 97% 29.72 in 7.0 mi WSW 11.5 mph - 0.01 in   Light Drizzle
8:35 PM 48.2 °F - 47.5 °F 97% 29.72 in 10.0 mi West 10.4 mph - 0.01 in   Overcast
8:55 PM 48.2 °F - 47.3 °F 97% 29.72 in 10.0 mi WSW 12.7 mph 18.4 mph 0.01 in   Overcast
9:15 PM 47.7 °F - 46.4 °F 95% 29.72 in 10.0 mi West 9.2 mph - N/A   Overcast
9:35 PM 47.3 °F - 46.2 °F 96% 29.72 in 10.0 mi West 6.9 mph - N/A   Overcast
9:55 PM 47.3 °F - 46.0 °F 95% 29.73 in 10.0 mi West 5.8 mph - N/A   Overcast
10:15 PM 46.6 °F - 45.5 °F 96% 29.73 in 10.0 mi West 8.1 mph - N/A   Overcast
10:35 PM 46.4 °F 42.9 °F 45.1 °F 95% 29.72 in 10.0 mi WSW 6.9 mph - N/A   Overcast
10:55 PM 46.4 °F 42.4 °F 44.8 °F 94% 29.72 in 10.0 mi WSW 8.1 mph - N/A   Overcast
11:15 PM 46.4 °F 42.4 °F 44.8 °F 94% 29.72 in 10.0 mi West 8.1 mph - N/A   Overcast
11:35 PM 46.0 °F 41.0 °F 44.8 °F 95% 29.71 in 10.0 mi West 10.4 mph - N/A   Overcast
11:55 PM 46.0 °F 41.4 °F 45.0 °F 96% 29.71 in 10.0 mi WSW 9.2 mph - N/A   Overcast